Weather History for KAEX - December, 2002

Change the Weather History Date:

Saturday, December 21, 2002

  Actual Average Record
Temperature  
Mean Temperature 49 °F 50 °F  
Max Temperature 63 °F 60 °F 79 °F (1948)
Min Temperature 35 °F 40 °F 18 °F (1901)
Degree Days  
Heating Degree Days 16 16  
Month to date heating degree days 305  
Since 1 July heating degree days 630  
Moisture  
Dew Point 44 °F    
Average Humidity 84    
Maximum Humidity 100    
Minimum Humidity 52    
Precipitation  
Precipitation 0.00 in 0.16 in 2.99 in (1972)
Month to date precipitation 4.61  
Year to date precipitation 54.41  
Snow  
Snow 0.00 in - T in (1963)
Month to date snowfall  
Since 1 July snowfall  
Snow Depth -    
Sea Level Pressure  
Sea Level Pressure 30.06 in    
Wind  
Wind Speed 7 mph (SSE)    
Max Wind Speed 14 mph    
Max Gust Speed 21 mph    
Visibility 7 miles    
Events Fog , Rain    
T = Trace of Precipitation, MM = Missing Value Source: NWS Daily Summary

Daily Weather History Graph

Daily Weather History Graph

Search for Another Location

Airport or City:

Trip Planner

Search our weather history database for the weather conditions in past years. The results will help you decide how hot, cold, wet, or windy it might be!

Date:

Astronomy

Dec. 21, 2002 Rise Set
Actual Time 7:05 AM CST 5:11 PM CST
Civil Twilight 6:38 AM CST 5:38 PM CST
Nautical Twilight 6:07 AM CST 6:08 PM CST
Astronomical Twilight 5:38 AM CST 6:38 PM CST
Moon 7:02 PM CST (12/21) 8:50 AM CST (12/21)
Length of Visible Light 11h 00m
Length of Day
10h 06m
Waning Gibbous, 96% of the Moon is Illuminated
Dec 21
Waning Gibbous
Dec 26
Last Quarter
Jan 2
New
Jan 10
First Quarter
Jan 18
Full

Hourly Weather History & Observations

Time (CST) Temp. Windchill Dew Point Humidity Pressure Visibility Wind Dir Wind Speed Gust Speed Precip Events Conditions
12:53 AM 43.0 °F 41.3 °F 35.1 °F 74% 30.14 in 10.0 mi South 3.5 mph - N/A   Clear
1:53 AM 39.9 °F 36.7 °F 35.1 °F 83% 30.14 in 10.0 mi ESE 4.6 mph - N/A   Clear
2:53 AM 39.0 °F 35.7 °F 36.0 °F 89% 30.12 in 10.0 mi ESE 4.6 mph - N/A   Clear
3:53 AM 39.0 °F 34.8 °F 37.0 °F 93% 30.11 in 10.0 mi ESE 5.8 mph - N/A   Clear
4:53 AM 37.0 °F 32.4 °F 36.0 °F 96% 30.10 in 10.0 mi SE 5.8 mph - N/A   Clear
5:53 AM 36.0 °F 30.3 °F 36.0 °F 100% 30.10 in 4.0 mi SE 6.9 mph - N/A   Clear
5:59 AM 37.4 °F 32.1 °F 37.4 °F 100% 30.08 in 1.8 mi SE 6.9 mph - N/A   Clear
6:03 AM 37.4 °F 32.1 °F 37.4 °F 100% 30.08 in 0.5 mi SE 6.9 mph - N/A Fog Fog
6:12 AM 35.6 °F 29.9 °F 35.6 °F 100% 30.09 in 0.2 mi SE 6.9 mph - N/A Fog Fog
6:25 AM 37.4 °F 31.4 °F 37.4 °F 100% 30.09 in 0.8 mi SE 8.1 mph - 0.00 in Rain Light Rain
6:53 AM 37.0 °F 31.6 °F 37.0 °F 100% 30.11 in 0.8 mi SE 6.9 mph - 0.00 in Rain Light Rain
7:10 AM 37.4 °F 32.1 °F 37.4 °F 100% 30.10 in 0.2 mi SE 6.9 mph - 0.00 in Fog Fog
7:17 AM 37.4 °F 32.1 °F 37.4 °F 100% 30.10 in 0.2 mi SE 6.9 mph - 0.00 in Fog Fog
7:36 AM 39.2 °F 34.2 °F 39.2 °F 100% 30.10 in 1.0 mi SE 6.9 mph - 0.00 in   Mist
7:53 AM 41.0 °F 36.4 °F 41.0 °F 100% 30.13 in 3.0 mi SE 6.9 mph - 0.00 in   Partly Cloudy
8:53 AM 46.0 °F 41.4 °F 44.1 °F 93% 30.14 in 10.0 mi SSE 9.2 mph - N/A   Clear
9:53 AM 54.0 °F - 46.0 °F 75% 30.14 in 10.0 mi SSE 10.4 mph - N/A   Clear
10:53 AM 60.1 °F - 43.0 °F 53% 30.12 in 10.0 mi South 11.5 mph - N/A   Clear
11:53 AM 62.1 °F - 44.1 °F 52% 30.08 in 10.0 mi SSE 13.8 mph - N/A   Overcast
12:53 PM 63.0 °F - 46.9 °F 56% 30.03 in 10.0 mi South 13.8 mph 20.7 mph N/A   Overcast
1:53 PM 63.0 °F - 48.0 °F 58% 30.02 in 10.0 mi South 12.7 mph 19.6 mph N/A   Overcast
2:53 PM 63.0 °F - 48.0 °F 58% 29.99 in 10.0 mi South 12.7 mph - N/A   Overcast
3:53 PM 63.0 °F - 50.0 °F 63% 29.98 in 10.0 mi SSE 11.5 mph - N/A   Overcast
4:53 PM 62.1 °F - 51.1 °F 67% 29.96 in 10.0 mi South 11.5 mph - N/A   Mostly Cloudy
5:53 PM 61.0 °F - 52.0 °F 72% 29.96 in 10.0 mi SSE 9.2 mph - N/A   Mostly Cloudy
6:53 PM 61.0 °F - 53.1 °F 75% 29.98 in 10.0 mi South 9.2 mph - N/A   Mostly Cloudy
7:53 PM 57.9 °F - 54.0 °F 87% 29.97 in 10.0 mi SSE 9.2 mph - N/A   Clear
8:53 PM 57.0 °F - 53.1 °F 87% 30.00 in 10.0 mi SSE 4.6 mph - N/A   Clear
9:53 PM 55.0 °F - 53.1 °F 93% 30.01 in 10.0 mi SSE 8.1 mph - N/A   Partly Cloudy
10:53 PM 57.0 °F - 55.0 °F 93% 30.01 in 10.0 mi South 4.6 mph - N/A   Clear
11:53 PM 57.0 °F - 55.0 °F 93% 30.02 in 10.0 mi South 5.8 mph - N/A   Partly Cloudy